Time,TemperatureF,DewpointF,PressureIn,WindDirection,WindDirectionDegrees,WindSpeedMPH,WindSpeedGustMPH,Humidity,HourlyPrecipIn,Conditions,Clouds,dailyrainin,SoftwareType,DateUTC
2013-04-26 00:02:00,57.0,42.0,30.15,SE,136,3.0,6.0,57,0.00,,,0.00,,2013-04-26 05:02:00,
2013-04-26 00:12:00,57.0,42.0,30.15,SE,136,3.0,6.0,57,0.00,,,0.00,,2013-04-26 05:12:00,
2013-04-26 00:22:00,58.0,40.0,30.16,SE,146,0.0,1.0,52,0.00,,,0.00,,2013-04-26 05:22:00,
2013-04-26 00:32:00,58.0,40.0,30.16,SE,139,1.0,3.0,52,0.00,,,0.00,,2013-04-26 05:32:00,
2013-04-26 00:42:00,58.0,40.0,30.16,SE,139,1.0,3.0,52,0.00,,,0.00,,2013-04-26 05:42:00,
2013-04-26 00:52:00,58.0,40.0,30.16,SE,139,1.0,3.0,52,0.00,,,0.00,,2013-04-26 05:52:00,
2013-04-26 01:02:00,58.0,40.0,30.16,SE,139,1.0,3.0,52,0.00,,,0.00,,2013-04-26 06:02:00,
2013-04-26 01:11:00,58.0,40.0,30.16,SE,139,1.0,3.0,52,0.00,,,0.00,,2013-04-26 06:11:00,
2013-04-26 01:22:00,58.0,42.0,30.17,SSW,194,3.0,9.0,55,0.00,,,0.00,,2013-04-26 06:22:00,
2013-04-26 01:32:00,57.0,44.0,30.18,SSE,166,7.0,10.0,61,0.00,,,0.00,,2013-04-26 06:32:00,
2013-04-26 01:42:00,57.0,44.0,30.18,SSE,166,7.0,10.0,61,0.00,,,0.00,,2013-04-26 06:42:00,
2013-04-26 01:52:00,57.0,44.0,30.18,SSE,166,7.0,10.0,61,0.00,,,0.00,,2013-04-26 06:52:00,
2013-04-26 02:01:00,56.0,44.0,30.16,SSE,163,3.0,9.0,63,0.00,,,0.00,,2013-04-26 07:01:00,
2013-04-26 02:11:00,56.0,44.0,30.16,SSE,163,3.0,9.0,63,0.00,,,0.00,,2013-04-26 07:11:00,
2013-04-26 02:22:00,56.0,44.0,30.16,SE,136,7.0,12.0,65,0.01,,,0.01,,2013-04-26 07:22:00,
2013-04-26 02:31:00,55.0,44.0,30.16,South,184,1.0,10.0,67,0.01,,,0.01,,2013-04-26 07:31:00,
2013-04-26 02:42:00,55.0,44.0,30.16,South,184,1.0,10.0,67,0.01,,,0.01,,2013-04-26 07:42:00,
2013-04-26 02:52:00,55.0,43.0,30.18,WNW,283,0.0,10.0,65,0.01,,,0.01,,2013-04-26 07:52:00,
2013-04-26 03:02:00,55.0,43.0,30.18,WNW,283,0.0,10.0,65,0.01,,,0.01,,2013-04-26 08:02:00,
2013-04-26 03:11:00,55.0,43.0,30.18,WNW,283,0.0,10.0,65,0.01,,,0.01,,2013-04-26 08:11:00,
2013-04-26 03:21:00,55.0,43.0,30.18,WNW,283,0.0,10.0,65,0.01,,,0.01,,2013-04-26 08:21:00,
2013-04-26 03:32:00,52.0,47.0,30.17,SE,134,0.0,2.0,83,0.03,,,0.04,,2013-04-26 08:32:00,
2013-04-26 03:42:00,52.0,47.0,30.17,SE,134,0.0,2.0,83,0.03,,,0.04,,2013-04-26 08:42:00,
2013-04-26 03:52:00,52.0,47.0,30.16,ESE,119,0.0,4.0,82,0.03,,,0.04,,2013-04-26 08:52:00,
2013-04-26 04:01:00,52.0,45.0,30.14,SSE,148,1.0,5.0,76,0.00,,,0.04,,2013-04-26 09:01:00,
2013-04-26 04:11:00,52.0,45.0,30.14,SSE,148,1.0,5.0,76,0.00,,,0.04,,2013-04-26 09:11:00,
2013-04-26 04:21:00,53.0,44.0,30.14,SE,143,3.0,7.0,72,0.00,,,0.04,,2013-04-26 09:21:00,
2013-04-26 04:33:00,53.0,44.0,30.13,SE,146,4.0,6.0,72,0.00,,,0.04,,2013-04-26 09:33:00,
2013-04-26 04:42:00,53.0,44.0,30.13,SE,146,4.0,6.0,72,0.00,,,0.04,,2013-04-26 09:42:00,
2013-04-26 04:53:00,52.0,44.0,30.13,SE,146,6.0,9.0,73,0.00,,,0.04,,2013-04-26 09:53:00,
2013-04-26 05:03:00,52.0,44.0,30.12,SSE,150,2.0,8.0,74,0.00,,,0.04,,2013-04-26 10:03:00,
2013-04-26 05:12:00,52.0,44.0,30.12,SSE,150,2.0,8.0,74,0.00,,,0.04,,2013-04-26 10:12:00,
2013-04-26 05:23:00,51.0,43.0,30.11,SE,134,5.0,7.0,75,0.00,,,0.04,,2013-04-26 10:23:00,
2013-04-26 05:33:00,51.0,43.0,30.11,SE,134,5.0,7.0,75,0.00,,,0.04,,2013-04-26 10:33:00,
2013-04-26 05:42:00,51.0,43.0,30.11,SE,134,5.0,7.0,75,0.00,,,0.04,,2013-04-26 10:42:00,
2013-04-26 05:52:00,51.0,44.0,30.11,ESE,121,4.0,12.0,76,0.00,,,0.04,,2013-04-26 10:52:00,
2013-04-26 06:00:00,51.0,44.0,30.10,SSE,167,5.0,7.0,77,0.00,,,0.04,,2013-04-26 11:00:00,
2013-04-26 06:02:00,51.0,44.0,30.11,ESE,121,4.0,12.0,76,0.00,,,0.04,,2013-04-26 11:02:00,
2013-04-26 06:11:00,51.0,44.0,30.11,ESE,121,4.0,12.0,76,0.00,,,0.04,,2013-04-26 11:11:00,
2013-04-26 06:22:00,51.0,44.0,30.10,SSE,167,5.0,7.0,77,0.00,,,0.04,,2013-04-26 11:22:00,
2013-04-26 06:32:00,51.0,44.0,30.10,SSE,167,5.0,7.0,77,0.00,,,0.04,,2013-04-26 11:32:00,
2013-04-26 06:42:00,51.0,44.0,30.10,SSE,167,5.0,7.0,77,0.00,,,0.04,,2013-04-26 11:42:00,
2013-04-26 06:52:00,51.0,44.0,30.10,SSE,167,5.0,7.0,77,0.00,,,0.04,,2013-04-26 11:52:00,
2013-04-26 07:22:00,52.0,45.0,30.11,SSE,148,4.0,4.0,76,0.00,,,0.04,,2013-04-26 12:22:00,
2013-04-26 07:32:00,52.0,45.0,30.11,SSE,148,4.0,4.0,76,0.00,,,0.04,,2013-04-26 12:32:00,
2013-04-26 07:42:00,52.0,45.0,30.11,SSE,148,4.0,4.0,76,0.00,,,0.04,,2013-04-26 12:42:00,
2013-04-26 07:52:00,52.0,45.0,30.11,SSE,148,4.0,4.0,76,0.00,,,0.04,,2013-04-26 12:52:00,
2013-04-26 08:01:00,54.0,46.0,30.12,SE,142,5.0,14.0,75,0.00,,,0.04,,2013-04-26 13:01:00,
2013-04-26 08:11:00,54.0,46.0,30.12,SE,142,5.0,14.0,75,0.00,,,0.04,,2013-04-26 13:11:00,
2013-04-26 08:21:00,54.0,47.0,30.13,ESE,121,2.0,15.0,76,0.00,,,0.04,,2013-04-26 13:21:00,
2013-04-26 08:32:00,54.0,47.0,30.13,ESE,121,2.0,15.0,76,0.00,,,0.04,,2013-04-26 13:32:00,
2013-04-26 08:41:00,54.0,47.0,30.13,ESE,121,2.0,15.0,76,0.00,,,0.04,,2013-04-26 13:41:00,
2013-04-26 08:52:00,53.0,46.0,30.13,SSE,165,3.0,12.0,77,0.00,,,0.04,,2013-04-26 13:52:00,
2013-04-26 09:01:00,54.0,47.0,30.12,SE,141,4.0,11.0,78,0.00,,,0.04,,2013-04-26 14:01:00,
2013-04-26 09:11:00,54.0,47.0,30.12,SE,141,4.0,11.0,78,0.00,,,0.04,,2013-04-26 14:11:00,
2013-04-26 09:21:00,54.0,47.0,30.12,SE,141,4.0,11.0,78,0.00,,,0.04,,2013-04-26 14:21:00,
2013-04-26 09:32:00,55.0,48.0,30.10,ESE,113,4.0,12.0,76,0.00,,,0.04,,2013-04-26 14:32:00,
2013-04-26 09:41:00,55.0,48.0,30.10,ESE,113,4.0,12.0,76,0.00,,,0.04,,2013-04-26 14:41:00,
2013-04-26 09:52:00,55.0,48.0,30.11,ESE,118,6.0,13.0,76,0.00,,,0.04,,2013-04-26 14:52:00,
2013-04-26 10:01:00,55.0,48.0,30.11,ESE,118,6.0,13.0,76,0.00,,,0.04,,2013-04-26 15:01:00,
2013-04-26 10:12:00,55.0,48.0,30.11,ESE,118,6.0,13.0,76,0.00,,,0.04,,2013-04-26 15:12:00,
2013-04-26 10:21:00,55.0,48.0,30.11,ESE,118,6.0,13.0,76,0.00,,,0.04,,2013-04-26 15:21:00,
2013-04-26 10:33:00,58.0,49.0,30.13,SE,143,12.0,15.0,71,0.00,,,0.04,,2013-04-26 15:33:00,
2013-04-26 10:43:00,58.0,49.0,30.13,SE,143,12.0,15.0,71,0.00,,,0.04,,2013-04-26 15:43:00,
2013-04-26 10:53:00,59.0,50.0,30.12,ESE,108,5.0,16.0,71,0.00,,,0.04,,2013-04-26 15:53:00,
2013-04-26 11:03:00,60.0,51.0,30.14,South,179,13.0,14.0,71,0.00,,,0.04,,2013-04-26 16:03:00,
2013-04-26 11:12:00,60.0,51.0,30.14,South,179,13.0,14.0,71,0.00,,,0.04,,2013-04-26 16:12:00,
2013-04-26 11:23:00,60.0,51.0,30.15,South,176,5.0,13.0,71,0.00,,,0.04,,2013-04-26 16:23:00,
2013-04-26 11:33:00,60.0,51.0,30.15,South,176,5.0,13.0,71,0.00,,,0.04,,2013-04-26 16:33:00,
2013-04-26 11:42:00,60.0,51.0,30.15,South,176,5.0,13.0,71,0.00,,,0.04,,2013-04-26 16:42:00,
2013-04-26 11:52:00,60.0,50.0,30.15,South,184,4.0,13.0,70,0.00,,,0.04,,2013-04-26 16:52:00,
2013-04-26 12:02:00,60.0,50.0,30.16,South,190,5.0,13.0,70,0.00,,,0.04,,2013-04-26 17:02:00,
2013-04-26 12:12:00,60.0,50.0,30.16,South,190,5.0,13.0,70,0.00,,,0.04,,2013-04-26 17:12:00,
2013-04-26 12:21:00,60.0,50.0,30.16,South,190,5.0,13.0,70,0.00,,,0.04,,2013-04-26 17:21:00,
2013-04-26 12:31:00,60.0,50.0,30.16,South,190,5.0,13.0,70,0.00,,,0.04,,2013-04-26 17:31:00,
2013-04-26 12:41:00,60.0,50.0,30.16,South,190,5.0,13.0,70,0.00,,,0.04,,2013-04-26 17:41:00,
2013-04-26 12:52:00,61.0,50.0,30.16,SSW,198,7.0,16.0,67,0.00,,,0.04,,2013-04-26 17:52:00,
2013-04-26 13:02:00,61.0,50.0,30.16,SSW,198,7.0,16.0,67,0.00,,,0.04,,2013-04-26 18:02:00,
2013-04-26 13:12:00,61.0,51.0,30.15,SE,134,6.0,14.0,69,0.00,,,0.04,,2013-04-26 18:12:00,
2013-04-26 13:22:00,61.0,51.0,30.15,SE,134,6.0,14.0,69,0.00,,,0.04,,2013-04-26 18:22:00,
2013-04-26 13:33:00,61.0,51.0,30.15,SE,134,6.0,14.0,69,0.00,,,0.04,,2013-04-26 18:33:00,
2013-04-26 13:42:00,61.0,51.0,30.15,SE,134,6.0,14.0,69,0.00,,,0.04,,2013-04-26 18:42:00,
2013-04-26 13:52:00,61.0,51.0,30.15,SE,134,6.0,14.0,69,0.00,,,0.04,,2013-04-26 18:52:00,
2013-04-26 14:01:00,58.0,49.0,30.15,SE,128,9.0,16.0,72,0.00,,,0.04,,2013-04-26 19:01:00,
2013-04-26 14:12:00,58.0,49.0,30.15,SE,128,9.0,16.0,72,0.00,,,0.04,,2013-04-26 19:12:00,
2013-04-26 14:22:00,58.0,49.0,30.15,SE,128,9.0,16.0,72,0.00,,,0.04,,2013-04-26 19:22:00,
2013-04-26 14:32:00,58.0,49.0,30.15,SE,128,9.0,16.0,72,0.00,,,0.04,,2013-04-26 19:32:00,
2013-04-26 14:41:00,58.0,49.0,30.15,SE,128,9.0,16.0,72,0.00,,,0.04,,2013-04-26 19:41:00,
2013-04-26 14:52:00,56.0,49.0,30.16,SSE,148,2.0,11.0,77,0.00,,,0.04,,2013-04-26 19:52:00,
2013-04-26 15:02:00,56.0,49.0,30.16,South,181,2.0,11.0,78,0.00,,,0.04,,2013-04-26 20:02:00,
2013-04-26 15:11:00,55.0,49.0,30.16,WSW,242,4.0,11.0,79,0.00,,,0.04,,2013-04-26 20:11:00,
2013-04-26 15:21:00,55.0,49.0,30.16,WSW,242,4.0,11.0,79,0.00,,,0.04,,2013-04-26 20:21:00,
2013-04-26 15:32:00,56.0,50.0,30.15,SE,145,7.0,12.0,80,0.00,,,0.04,,2013-04-26 20:32:00,
2013-04-26 15:42:00,56.0,50.0,30.15,SE,145,7.0,12.0,80,0.00,,,0.04,,2013-04-26 20:42:00,
2013-04-26 15:52:00,56.0,50.0,30.15,SE,145,7.0,12.0,80,0.00,,,0.04,,2013-04-26 20:52:00,
2013-04-26 16:01:00,55.0,49.0,30.14,South,179,2.0,11.0,80,0.00,,,0.04,,2013-04-26 21:01:00,
2013-04-26 16:11:00,55.0,49.0,30.14,South,179,2.0,11.0,80,0.00,,,0.04,,2013-04-26 21:11:00,
2013-04-26 16:22:00,55.0,49.0,30.14,South,179,2.0,11.0,80,0.00,,,0.04,,2013-04-26 21:22:00,
2013-04-26 16:33:00,55.0,49.0,30.14,SE,146,11.0,13.0,81,0.00,,,0.04,,2013-04-26 21:33:00,
2013-04-26 16:42:00,55.0,49.0,30.14,SE,146,11.0,13.0,81,0.00,,,0.04,,2013-04-26 21:42:00,
2013-04-26 16:53:00,55.0,49.0,30.14,SE,146,11.0,13.0,81,0.00,,,0.04,,2013-04-26 21:53:00,
2013-04-26 17:02:00,55.0,49.0,30.14,SE,146,11.0,13.0,81,0.00,,,0.04,,2013-04-26 22:02:00,
2013-04-26 17:12:00,55.0,49.0,30.14,SE,146,11.0,13.0,81,0.00,,,0.04,,2013-04-26 22:12:00,
2013-04-26 17:23:00,53.0,48.0,30.15,South,174,7.0,13.0,83,0.00,,,0.04,,2013-04-26 22:23:00,
2013-04-26 17:33:00,54.0,49.0,30.15,ENE,59,3.0,8.0,83,0.00,,,0.04,,2013-04-26 22:33:00,
2013-04-26 17:42:00,54.0,49.0,30.15,ENE,59,3.0,8.0,83,0.00,,,0.04,,2013-04-26 22:42:00,
2013-04-26 17:52:00,54.0,49.0,30.15,ENE,59,3.0,8.0,83,0.00,,,0.04,,2013-04-26 22:52:00,
2013-04-26 18:02:00,53.0,49.0,30.15,South,181,1.0,11.0,87,0.00,,,0.04,,2013-04-26 23:02:00,
2013-04-26 18:11:00,53.0,49.0,30.15,South,181,1.0,11.0,87,0.00,,,0.04,,2013-04-26 23:11:00,
2013-04-26 18:21:00,53.0,50.0,30.15,SSE,150,1.0,8.0,88,0.00,,,0.04,,2013-04-26 23:21:00,
2013-04-26 18:32:00,53.0,50.0,30.15,ESE,115,4.0,8.0,88,0.00,,,0.04,,2013-04-26 23:32:00,
2013-04-26 18:42:00,53.0,50.0,30.15,ESE,115,4.0,8.0,88,0.00,,,0.04,,2013-04-26 23:42:00,
2013-04-26 18:52:00,52.0,49.0,30.15,SE,145,2.0,5.0,90,0.00,,,0.04,,2013-04-26 23:52:00,
2013-04-26 19:01:00,52.0,49.0,30.14,SE,143,0.0,7.0,91,0.01,,,0.05,,2013-04-27 00:01:00,
2013-04-26 19:11:00,52.0,49.0,30.14,SE,143,0.0,7.0,91,0.01,,,0.05,,2013-04-27 00:11:00,
2013-04-26 19:21:00,52.0,49.0,30.16,SSE,149,0.0,5.0,91,0.01,,,0.05,,2013-04-27 00:21:00,
2013-04-26 19:32:00,52.0,49.0,30.16,SSE,149,0.0,5.0,91,0.01,,,0.05,,2013-04-27 00:32:00,
2013-04-26 19:41:00,52.0,49.0,30.16,SSE,149,0.0,5.0,91,0.01,,,0.05,,2013-04-27 00:41:00,
2013-04-26 19:52:00,52.0,50.0,30.16,East,82,0.0,4.0,92,0.02,,,0.06,,2013-04-27 00:52:00,
2013-04-26 20:01:00,52.0,50.0,30.16,East,82,0.0,4.0,92,0.02,,,0.06,,2013-04-27 01:01:00,
2013-04-26 20:12:00,52.0,50.0,30.16,East,82,0.0,4.0,92,0.02,,,0.06,,2013-04-27 01:12:00,
2013-04-26 20:21:00,52.0,50.0,30.18,ESE,123,1.0,2.0,92,0.01,,,0.06,,2013-04-27 01:21:00,
2013-04-26 20:32:00,52.0,50.0,30.19,ENE,71,1.0,2.0,92,0.00,,,0.06,,2013-04-27 01:32:00,
2013-04-26 20:42:00,52.0,50.0,30.19,ENE,71,1.0,2.0,92,0.00,,,0.06,,2013-04-27 01:42:00,
2013-04-26 20:52:00,52.0,50.0,30.19,ENE,61,3.0,5.0,93,0.00,,,0.06,,2013-04-27 01:52:00,
2013-04-26 21:01:00,52.0,50.0,30.19,ENE,61,3.0,5.0,93,0.00,,,0.06,,2013-04-27 02:01:00,
2013-04-26 21:11:00,52.0,50.0,30.19,ENE,61,3.0,5.0,93,0.00,,,0.06,,2013-04-27 02:11:00,
2013-04-26 21:22:00,52.0,50.0,30.20,ENE,59,2.0,5.0,92,0.00,,,0.06,,2013-04-27 02:22:00,
2013-04-26 21:32:00,52.0,50.0,30.21,ENE,59,1.0,4.0,93,0.00,,,0.06,,2013-04-27 02:32:00,
2013-04-26 21:42:00,52.0,50.0,30.21,ENE,59,1.0,4.0,93,0.00,,,0.06,,2013-04-27 02:42:00,
2013-04-26 21:52:00,52.0,50.0,30.22,ENE,77,0.0,6.0,93,0.00,,,0.06,,2013-04-27 02:52:00,
2013-04-26 22:02:00,52.0,50.0,30.22,ENE,77,0.0,6.0,93,0.00,,,0.06,,2013-04-27 03:02:00,
2013-04-26 22:11:00,52.0,50.0,30.22,ENE,77,0.0,6.0,93,0.00,,,0.06,,2013-04-27 03:11:00,
2013-04-26 22:22:00,52.0,50.0,30.22,ENE,62,1.0,4.0,93,0.00,,,0.06,,2013-04-27 03:22:00,
2013-04-26 22:32:00,52.0,50.0,30.22,ENE,62,1.0,4.0,93,0.00,,,0.06,,2013-04-27 03:32:00,
2013-04-26 22:43:00,52.0,50.0,30.22,ENE,62,1.0,4.0,93,0.00,,,0.06,,2013-04-27 03:43:00,
2013-04-26 22:53:00,52.0,50.0,30.22,ENE,68,1.0,3.0,93,0.00,,,0.06,,2013-04-27 03:53:00,
2013-04-26 23:02:00,52.0,50.0,30.22,ENE,68,1.0,3.0,93,0.00,,,0.06,,2013-04-27 04:02:00,
2013-04-26 23:12:00,52.0,50.0,30.22,ENE,68,1.0,3.0,93,0.00,,,0.06,,2013-04-27 04:12:00,
2013-04-26 23:22:00,51.0,49.0,30.23,NE,50,3.0,4.0,94,0.00,,,0.06,,2013-04-27 04:22:00,
2013-04-26 23:33:00,51.0,49.0,30.23,ENE,77,1.0,4.0,94,0.00,,,0.06,,2013-04-27 04:33:00,
2013-04-26 23:43:00,51.0,49.0,30.23,ENE,77,1.0,4.0,94,0.00,,,0.06,,2013-04-27 04:43:00,
2013-04-26 23:53:00,51.0,49.0,30.23,NE,50,2.0,4.0,94,0.00,,,0.06,,2013-04-27 04:53:00,